Danbury, CT

4:06 PM EST on February 18, 2018 (GMT -0500)
Danbury Municipal

Weather History for KDXR - November, 2013

Change the Weather History Date:

Thursday, November 21, 2013

  Actual Average Record
Temperature  
Mean Temperature 33 °F -  
Max Temperature 48 °F 48 °F 69 °F (1985)
Min Temperature 18 °F 31 °F 15 °F (2008)
Degree Days  
Heating Degree Days 32    
Moisture  
Dew Point 24 °F    
Average Humidity 65    
Maximum Humidity 85    
Minimum Humidity 39    
Precipitation  
Precipitation 0.00 in - - ()
Sea Level Pressure  
Sea Level Pressure 30.55 in    
Wind  
Wind Speed 1 mph (SSE)    
Max Wind Speed 7 mph    
Max Gust Speed -    
Visibility 10 miles    
Events      
Averages and records for this station are not official NWS values.
T = Trace of Precipitation, MM = Missing Value Source: NWS Daily Summary

Daily Weather History Graph

Daily Weather History Graph

Search for Another Location

Airport or City:

Trip Planner

Search our weather history database for the weather conditions in past years. The results will help you decide how hot, cold, wet, or windy it might be!

Date:

Astronomy

Nov. 21, 2013 Rise Set
Actual Time 6:49 AM EST 4:29 PM EST
Civil Twilight 6:19 AM EST 4:59 PM EST
Nautical Twilight 5:45 AM EST 5:33 PM EST
Astronomical Twilight 5:12 AM EST 6:06 PM EST
Moon 8:04 PM EST (11/21) 9:54 AM EST (11/21)
Length of Visible Light 10h 40m
Length of Day
9h 40m
Waning Gibbous, 85% of the Moon is Illuminated
Nov 21
Waning Gibbous
Nov 25
Last Quarter
Dec 2
New
Dec 9
First Quarter
Dec 17
Full

Hourly Weather History & Observations

Time (EST) Temp. Windchill Dew Point Humidity Pressure Visibility Wind Dir Wind Speed Gust Speed Precip Events Conditions
12:53 AM 19.9 °F - 15.1 °F 81% 30.64 in 10.0 mi Calm Calm - N/A   Clear
1:53 AM 21.9 °F - 16.0 °F 78% 30.65 in 10.0 mi Calm Calm - N/A   Clear
2:53 AM 19.9 °F - 15.1 °F 81% 30.64 in 10.0 mi Calm Calm - N/A   Clear
3:53 AM 19.9 °F - 15.1 °F 81% 30.63 in 10.0 mi Calm Calm - N/A   Clear
4:53 AM 18.0 °F - 14.0 °F 84% 30.65 in 10.0 mi Calm Calm - N/A   Clear
5:53 AM 19.0 °F - 14.0 °F 81% 30.64 in 10.0 mi Calm Calm - N/A   Clear
6:53 AM 18.0 °F - 12.9 °F 81% 30.66 in 10.0 mi Calm Calm - N/A   Clear
7:53 AM 21.9 °F - 18.0 °F 85% 30.66 in 9.0 mi Calm Calm - N/A   Mostly Cloudy
8:53 AM 30.9 °F - 21.9 °F 69% 30.64 in 10.0 mi Calm Calm - N/A   Scattered Clouds
9:53 AM 35.1 °F 31.0 °F 17.1 °F 48% 30.64 in 10.0 mi North 4.6 mph - N/A   Clear
10:53 AM 39.0 °F 35.7 °F 17.1 °F 41% 30.61 in 10.0 mi North 4.6 mph - N/A   Clear
11:53 AM 45.0 °F - 21.0 °F 39% 30.58 in 10.0 mi Calm Calm - N/A   Partly Cloudy
12:53 PM 46.9 °F - 26.1 °F 44% 30.54 in 10.0 mi Variable 4.6 mph - N/A   Scattered Clouds
1:53 PM 48.0 °F - 28.9 °F 48% 30.51 in 10.0 mi SSE 6.9 mph - N/A   Scattered Clouds
2:53 PM 48.0 °F - 28.9 °F 48% 30.50 in 10.0 mi SSW 6.9 mph - N/A   Clear
3:53 PM 46.0 °F 43.1 °F 30.0 °F 54% 30.50 in 10.0 mi SSW 5.8 mph - N/A   Partly Cloudy
4:53 PM 44.1 °F 41.5 °F 30.0 °F 58% 30.49 in 10.0 mi SE 4.6 mph - N/A   Overcast
5:53 PM 44.1 °F - 30.9 °F 60% 30.49 in 10.0 mi Calm Calm - N/A   Overcast
6:53 PM 44.1 °F - 30.9 °F 60% 30.49 in 10.0 mi Calm Calm - N/A   Overcast
7:53 PM 42.1 °F - 32.0 °F 67% 30.48 in 10.0 mi Calm Calm - N/A   Overcast
8:04 PM 42.8 °F - 30.2 °F 61% 30.46 in 10.0 mi Calm Calm - N/A   Overcast
8:53 PM 42.1 °F - 32.0 °F 67% 30.45 in 10.0 mi Calm Calm - N/A   Overcast
9:53 PM 42.1 °F - 32.0 °F 67% 30.44 in 10.0 mi Calm Calm - N/A   Overcast
10:26 PM 42.8 °F - 33.8 °F 70% 30.42 in 10.0 mi Calm Calm - N/A   Overcast
10:53 PM 42.1 °F - 33.1 °F 70% 30.42 in 10.0 mi Calm Calm - N/A   Overcast
11:53 PM 42.1 °F - 34.0 °F 73% 30.40 in 10.0 mi Calm Calm - N/A   Overcast